User: anonymous   Login
Location: Churchill
(58.7670°N, 94.1670°W)
Time: 20:24:52
(UTC-05:00)
Language:

Cosmos 2142 Rocket - Orbit

View from above orbital plane
View from above orbital plane
View from above satellite
View from above satellite

Ground track
Ground track

The orbit data is extracted from the following two-line orbital elements,

1 21231U 91029B   17149.51009442 +.00000026 +00000-0 +11656-4 0  9998
2 21231 082.9504 122.5127 0033751 282.5774 217.3374 13.75743441310957
Epoch (UTC): 29 May 2017 12:14:32
Eccentricity: 0.0033751
inclination: 82.9504°
perigee height: 954 km
apogee height: 1004 km
right ascension of ascending node: 122.5127°
argument of perigee: 282.5774°
revolutions per day: 13.75743441
mean anomaly at epoch: 217.3374°
orbit number at epoch: 31095

The dashed part of the orbit path shows where the satellite is in the earth's shadow,  

DLR